Regional Weather Roundup
Issued by NWS

Home | Current Version | Previous Version | Text Only | Print | Product List | Glossary Off
Versions: 1 2 3 4 5 6 7 8 9 10 11 12 13 14 15 16 17 18 19 20 21 22 23 24 25 26 27 28 29 30 31 32 33 34 35 36 37 38 39 40 41 42 43 44 45 46 47 48 49 50

000
ASUS43 KLSX 180507
RWRMO

WEATHER SUMMARY FOR MISSOURI
NATIONAL WEATHER SERVICE SPRINGFIELD MO
1200 AM CDT THU SEP 18 2014

NOTE: "FAIR" INDICATES FEW OR NO CLOUDS BELOW 12,000 FEET WITH NO
       SIGNIFICANT WEATHER AND/OR OBSTRUCTIONS TO VISIBILITY.
       CURRENT SKY AND/OR WEATHER CONDITIONS ARE NOT AVAILABLE FOR
       CHILLICOTHE AND FARMINGTON.

MOZ001>031-035>038-043-044-053-054-180600-
...NORTHERN AND WESTERN MISSOURI...

CITY           SKY/WX    TMP DP  RH WIND       PRES   REMARKS
KANSAS CTY INT PTCLDY    66  63  90 E7        29.97R
KANSAS C DTWN  CLEAR     65  63  93 E3        29.96R
LEE`S SUMMIT   MOCLDY    64  63  96 E7        29.97S FOG
ST JOSEPH      PTCLDY    59  59 100 CALM      29.97R
CHILLICOTHE      N/A     66  61  84 SE3       30.01R
KIRKSVILLE     PTCLDY    57  55  93 E3        30.02S FOG

$$
MOZ066>068-077>081-088>096-101>105-180600-
...SOUTHWEST MISSOURI...

CITY           SKY/WX    TMP DP  RH WIND       PRES   REMARKS
SPRINGFIELD    CLOUDY    66  63  90 SE6       29.96R
JOPLIN         MOCLDY    66  64  93 SE5       29.93S

$$
MOZ032>034-039>042-045>050-055>058-069>072-180600-
...CENTRAL MISSOURI...

CITY           SKY/WX    TMP DP  RH WIND       PRES   REMARKS
COLUMBIA       FOG       60  60 100 E8          N/A  VSB 1/2
JEFFERSON CITY CLOUDY    62  61  96 NE6       29.98S FOG
ROLLA          FOG       61  60  97 E6        29.97S VSB 1/2
SEDALIA        CLOUDY    63  61  93 E8        29.99R FOG
WHITEMAN AFB   CLOUDY    63  61  94 E7        29.98R
OSAGE BEACH    CLOUDY    66  63  88 E5        29.97S

$$
MOZ051-052-059>065-180600-
...EAST CENTRAL MISSOURI...

CITY           SKY/WX    TMP DP  RH WIND       PRES   REMARKS
ST LOUIS INTL  CLOUDY    63  55  75 E3        30.01S
SPIRIT OF STL  CLOUDY    61  57  87 E3        29.99S
ST CHARLES     CLOUDY    60  57  89 NE5       30.00S

$$
MOZ072>076-082>087-097>100-106>115-180600-
...SOUTH CENTRAL AND SOUTHEAST MISSOURI...

CITY           SKY/WX    TMP DP  RH WIND       PRES   REMARKS
CAPE GIRARDEAU PTCLDY    57  56  96 E3        29.98S FOG
FARMINGTON     CLOUDY    59  57  94 CALM      30.01S
POPLAR BLUFF   CLOUDY    62  58  86 CALM      29.96F
WEST PLAINS    FOG       61  59  93 E6        30.00R VSB 1/2

$$



USA.gov is the U.S. government's official web portal to all federal, state and local government web resources and services.